Location: R�serve Fauniques des Laurentides
(47.3100°N, 71.1900°W)
Time: 00:27:42
(UTC-05:00)

Amateur Radio Satellites - All Passes

Search period start: 22 January 2018 23:57
Search period end: 23 January 2018 23:57
Location: R�serve Fauniques des Laurentides, 47.3100°N, 71.1900°W

Satellite Date Start Highest point End Downlink Frequencies (MHz)
Time Altitude Azimuth
POLYITAN 1 23 Jan 00:03:30 00:07:49 85° 285° (WNW) 00:12:07 437.675
ISS 23 Jan 00:12:09 00:15:21 50° 15° (NNE) 00:18:34 437.550
AO-91 23 Jan 00:14:39 00:18:01 20° 93° (E) 00:21:36 145.960
BUGSAT 1 23 Jan 00:16:56 00:20:31 25° 95° (E) 00:24:03 437.445
NANOSAT C BR1 23 Jan 00:17:01 00:21:18 70° 286° (WNW) 00:25:31 145.865
50 SAT 23 Jan 00:24:56 00:27:49 39° 72° (ENE) 00:30:45 437.505
SPROUT 23 Jan 00:27:43 00:30:44 19° 268° (W) 00:33:47 437.525
QB50P2 23 Jan 00:33:42 00:37:41 38° 291° (WNW) 00:41:38 145.880/145.840
UKube-1 23 Jan 00:38:47 00:42:53 46° 70° (ENE) 00:47:00 .
VELOX 1 23 Jan 00:47:40 00:51:00 21° 267° (W) 00:54:22 145.980
DX 1 23 Jan 00:55:16 00:59:35 75° 257° (WSW) 01:03:56 434.975-435.025
DUCHIFAT 1 23 Jan 00:59:49 01:03:33 30° 293° (WNW) 01:07:16 145.980
EO-79 23 Jan 01:04:16 01:07:36 22° 296° (WNW) 01:10:56 145.935-145.965
O/OREOS (USA 219) 23 Jan 01:06:28 01:10:18 27° 307° (NW) 01:14:09 437.305
YUBILEINY 23 Jan 01:09:09 01:15:04 19° 306° (NW) 01:21:00 435.215
ITUPSAT 1 23 Jan 01:14:32 01:18:13 23° 62° (ENE) 01:21:56 437.325
MOZHAYETS 4 23 Jan 01:23:05 01:27:25 40° 69° (ENE) 01:31:47
AO-7 23 Jan 01:24:41 01:27:42 12° 83° (E) 01:30:42 .
nSIGHT-1 23 Jan 01:26:12 01:29:15 43° 213° (SSW) 01:32:17 .
Oscar 19 23 Jan 01:28:31 01:33:43 76° 103° (ESE) 01:38:52 437.125/150
Gurwin Techsat 1B 23 Jan 01:32:25 01:37:43 63° 102° (ESE) 01:42:59 435.225
CUBESAT XI-V 23 Jan 01:33:59 01:36:51 16° 59° (ENE) 01:39:42 437.345
POLYITAN 1 23 Jan 01:41:35 01:42:52 11° 303° (WNW) 01:44:10 437.675
ISS 23 Jan 01:48:42 01:51:50 41° 214° (SSW) 01:54:56 437.550
AO-91 23 Jan 01:50:18 01:54:39 54° 288° (WNW) 01:59:28 145.960
BEESAT 23 Jan 01:51:33 01:56:06 47° 69° (ENE) 02:00:42 436.000
BUGSAT 1 23 Jan 01:52:03 01:55:54 34° 292° (WNW) 01:59:45 437.445
50 SAT 23 Jan 01:58:41 01:59:44 11° 269° (W) 02:00:47 437.505
UKube-1 23 Jan 02:16:01 02:19:08 19° 268° (W) 02:22:15 .
KKS-1 23 Jan 02:38:31 02:39:59 12° 56° (NE) 02:41:28 437.445
ITAMSAT 1 23 Jan 02:40:25 02:44:20 21° 92° (E) 02:48:13 435.822/435.867
ITUPSAT 1 23 Jan 02:51:04 02:55:43 51° 260° (W) 03:00:25 437.325
MOZHAYETS 4 23 Jan 03:00:52 03:04:42 25° 267° (W) 03:08:33
CUBESAT XI-V 23 Jan 03:08:58 03:13:39 73° 257° (WSW) 03:18:20 437.345
Oscar 19 23 Jan 03:09:01 03:12:27 18° 302° (WNW) 03:15:52 437.125/150
Gurwin Techsat 1B 23 Jan 03:13:13 03:17:13 22° 301° (WNW) 03:21:13 435.225
AO-7 23 Jan 03:13:56 03:22:14 61° 104° (ESE) 03:30:28 .
DOVE 4 23 Jan 03:25:32 03:28:03 15° 90° (E) 03:30:37 437.250
BEESAT 23 Jan 03:30:20 03:34:06 23° 267° (W) 03:37:53 436.000
FALCONSAT 3 23 Jan 03:42:33 03:43:48 11° 170° (S) 03:45:04 435.103
SO-50 23 Jan 03:56:24 03:59:58 24° 114° (ESE) 04:03:36 436.795
KKS-1 23 Jan 04:11:23 04:15:48 83° 76° (ENE) 04:20:15 437.445
ITAMSAT 1 23 Jan 04:19:03 04:24:11 59° 290° (WNW) 04:29:16 435.822/435.867
STARS 23 Jan 04:20:39 04:24:46 43° 69° (ENE) 04:28:55 437.465
XW-2D 23 Jan 04:44:38 04:46:15 12° 89° (E) 04:47:50 145.860 - 145.880
XW-2B 23 Jan 05:01:29 05:04:08 18° 92° (E) 05:06:46 145.730 - 145.750
DOVE 4 23 Jan 05:01:47 05:06:06 64° 287° (WNW) 05:10:40 437.250
AO-7 23 Jan 05:07:09 05:14:40 39° 305° (NW) 05:22:09 .
M-CUBED/EXP-1 PRIME 23 Jan 05:10:56 05:14:19 87° 290° (WNW) 05:17:33 437.505
FALCONSAT 3 23 Jan 05:20:23 05:22:01 12° 186° (S) 05:23:38 435.103
CUTE 1.7 + AOD 2 23 Jan 05:25:46 05:27:02 11° 87° (E) 05:28:19 437.475
STRAND 1 23 Jan 05:27:45 05:32:19 35° 65° (ENE) 05:36:56 437.568
XW-2C 23 Jan 05:31:19 05:34:53 39° 98° (E) 05:38:24 145.795 - 145.815
LilacSat-2 23 Jan 05:32:15 05:35:54 44° 99° (E) 05:39:30 437.200
SO-50 23 Jan 05:35:47 05:40:08 50° 313° (NW) 05:44:36 436.795
KKS-1 23 Jan 05:51:32 05:52:57 11° 272° (W) 05:54:22 437.445
FO-29 23 Jan 05:52:49 05:58:27 32° 64° (ENE) 06:03:32 435.910
STARS 23 Jan 05:57:57 06:01:18 21° 267° (W) 06:04:40 437.465
KAITUO 1B 23 Jan 05:58:58 06:02:38 59° 101° (E) 06:06:15 145.475/437.950
ITAMSAT 1 23 Jan 06:01:38 06:02:35 10° 309° (NW) 06:03:32 435.822/435.867
CUBEBUG 2 23 Jan 06:01:45 06:05:20 21° 91° (E) 06:08:52 437.445
UWE-3 23 Jan 06:03:13 06:05:02 12° 86° (E) 06:06:51 435.000/436.395/437.385
XW-2F 23 Jan 06:05:05 06:08:50 88° 288° (WNW) 06:12:33 145.980 - 146.000
NUDT-PHONESAT 23 Jan 06:05:17 06:08:58 66° 102° (ESE) 06:12:35 437.300
CUTE-I 23 Jan 06:09:31 06:14:51 70° 103° (ESE) 06:20:10 437.470
XW-2D 23 Jan 06:17:04 06:20:46 56° 287° (WNW) 06:24:26 145.860 - 145.880
AAUSAT CUBESAT 2 23 Jan 06:18:23 06:18:51 10° 87° (E) 06:19:20 437.432
HO-68 23 Jan 06:23:05 06:29:58 47° 99° (E) 06:36:49 435.675
XW-2B 23 Jan 06:34:57 06:38:27 37° 290° (WNW) 06:41:54 145.730 - 145.750
RS-15 23 Jan 06:38:48 06:49:53 42° 109° (ESE) 07:00:49 29.354- 29.394
SEEDS 23 Jan 06:41:42 06:45:41 42° 98° (E) 06:49:37 437.485
Oscar 11 23 Jan 06:57:08 06:58:28 11° 87° (E) 06:59:49 .
CUTE 1.7 + AOD 2 23 Jan 06:59:12 07:03:25 77° 285° (WNW) 07:07:36 437.475
AO-7 23 Jan 07:02:15 07:05:06 12° 329° (NNW) 07:07:58 .
XW-2C 23 Jan 07:06:09 07:08:46 18° 296° (WNW) 07:11:23 145.795 - 145.815
STRAND 1 23 Jan 07:06:51 07:11:29 35° 264° (W) 07:16:09 437.568
LilacSat-2 23 Jan 07:07:22 07:09:51 17° 297° (WNW) 07:12:18 437.200
YUBILEINY 23 Jan 07:18:40 07:23:53 17° 52° (NE) 07:29:03 435.215
SO-50 23 Jan 07:19:09 07:21:40 14° 336° (NNW) 07:24:14 436.795
XW-2A 23 Jan 07:19:47 07:22:54 35° 98° (E) 07:25:59 145.665 - 145.685
KAITUO 1B 23 Jan 07:34:25 07:36:08 13° 299° (WNW) 07:37:50 145.475/437.950
FO-29 23 Jan 07:36:58 07:43:23 49° 260° (W) 07:49:07 435.910
UWE-3 23 Jan 07:37:25 07:42:08 85° 282° (WNW) 07:46:45 435.000/436.395/437.385
CUBEBUG 2 23 Jan 07:37:34 07:42:12 52° 289° (WNW) 07:46:48 437.445
NUDT-PHONESAT 23 Jan 07:40:57 07:42:16 12° 299° (WNW) 07:43:35 437.300
TIGRISAT 23 Jan 07:41:21 07:45:05 26° 65° (ENE) 07:48:54 435.000
CUTE-I 23 Jan 07:50:35 07:54:23 20° 302° (WNW) 07:58:10 437.470
AAUSAT CUBESAT 2 23 Jan 07:50:44 07:54:52 81° 283° (WNW) 07:58:57 437.432
O/OREOS (USA 219) 23 Jan 07:54:30 07:57:47 20° 49° (NE) 08:01:03 437.305
ZACube-1 23 Jan 07:55:17 07:59:53 80° 103° (ESE) 08:04:22 437.345
UNISAT 6 23 Jan 07:56:50 08:00:59 39° 69° (ENE) 08:05:16 437.425
AO-73 23 Jan 08:00:25 08:05:00 79° 102° (ESE) 08:09:27 145.935
DELFI C3 23 Jan 08:05:32 08:06:06 10° 88° (E) 08:06:39 145.870
HO-68 23 Jan 08:11:02 08:17:37 41° 299° (WNW) 08:24:11 435.675
SEEDS 23 Jan 08:17:58 08:21:06 21° 296° (WNW) 08:24:12 437.485
BEESAT 3 23 Jan 08:24:19 08:27:53 33° 118° (ESE) 08:31:29 437.485
Oscar 11 23 Jan 08:30:50 08:35:11 80° 286° (WNW) 08:39:29 .
PCSat 23 Jan 08:31:58 08:36:50 35° 113° (ESE) 08:41:45 145.827
RS-15 23 Jan 08:49:24 09:01:45 73° 313° (NW) 09:13:52 29.354- 29.394
XW-2A 23 Jan 08:53:11 08:55:19 16° 295° (WNW) 08:57:27 145.665 - 145.685
PRISM 23 Jan 08:56:16 08:59:59 35° 68° (ENE) 09:03:42 437.425
YUBILEINY 23 Jan 09:14:00 09:22:44 66° 77° (ENE) 09:31:21 435.215
UWE-3 23 Jan 09:15:47 09:17:49 13° 303° (WNW) 09:19:49 435.000/436.395/437.385
TIGRISAT 23 Jan 09:17:26 09:21:36 38° 263° (W) 09:25:53 435.000
BEESAT 2 23 Jan 09:18:44 09:22:20 33° 118° (ESE) 09:26:00 435.950
POLYITAN 1 23 Jan 09:25:29 09:27:34 13° 59° (ENE) 09:29:39 437.675
ZACube-1 23 Jan 09:33:04 09:35:31 14° 301° (WNW) 09:37:56 437.345
O/OREOS (USA 219) 23 Jan 09:33:11 09:37:36 61° 249° (WSW) 09:42:01 437.305
UNISAT 6 23 Jan 09:34:08 09:37:49 25° 267° (W) 09:41:36 437.425
DELFI C3 23 Jan 09:37:23 09:41:19 75° 285° (WNW) 09:45:14 145.870
NANOSAT C BR1 23 Jan 09:38:00 09:40:31 16° 60° (ENE) 09:43:02 145.865
AO-73 23 Jan 09:38:10 09:40:35 14° 301° (WNW) 09:42:59 145.935
Max Valier Satellite 23 Jan 09:43:20 09:47:04 88° 100° (E) 09:50:44 145.860
AIST 2D 23 Jan 09:44:56 09:48:20 50° 74° (ENE) 09:51:45 435.315
QB50P2 23 Jan 09:53:41 09:57:14 26° 65° (ENE) 10:00:48 145.880/145.840
EO-88 23 Jan 09:55:39 09:59:18 81° 103° (ESE) 10:02:55 145.990 - 145.960
BEESAT 3 23 Jan 10:01:47 10:05:24 32° 317° (NW) 10:09:02 437.485
HO-68 23 Jan 10:02:21 10:03:28 10° 321° (NW) 10:04:36 435.675
Oscar 11 23 Jan 10:09:39 10:10:34 11° 303° (WNW) 10:11:28 .
PCSat 23 Jan 10:15:00 10:20:10 43° 313° (NW) 10:25:21 145.827
DUCHIFAT 1 23 Jan 10:18:36 10:22:21 32° 67° (ENE) 10:26:08 145.980
EO-79 23 Jan 10:22:58 10:27:01 45° 70° (ENE) 10:31:06 145.935-145.965
PRISM 23 Jan 10:32:08 10:35:20 22° 266° (W) 10:38:33 437.425
AO-85 23 Jan 10:41:23 10:44:56 31° 116° (ESE) 10:48:42 145.980
SO-50 23 Jan 10:43:48 10:46:39 16° 26° (NNE) 10:49:33 436.795
BEESAT 2 23 Jan 10:56:22 11:00:02 33° 317° (NW) 11:03:45 435.950
POLYITAN 1 23 Jan 10:58:30 11:02:44 78° 256° (WSW) 11:07:03 437.675
RS-15 23 Jan 11:05:35 11:16:41 37° 343° (NNW) 11:27:27 29.354- 29.394
LO-87 23 Jan 11:06:08 11:09:47 72° 102° (ESE) 11:13:24 145.935 - 145.965
ESTCUBE 1 23 Jan 11:09:19 11:13:45 56° 101° (E) 11:18:09 437.505/2401.250
BUGSAT 1 23 Jan 11:09:27 11:12:54 27° 66° (ENE) 11:16:25 437.445
Oscar 19 23 Jan 11:10:38 11:14:43 24° 61° (ENE) 11:18:49 437.125/150
NANOSAT C BR1 23 Jan 11:11:33 11:15:44 64° 259° (W) 11:19:58 145.865
YUBILEINY 23 Jan 11:11:36 11:18:53 31° 279° (W) 11:26:07 435.215
AO-91 23 Jan 11:16:17 11:18:33 17° 62° (ENE) 11:20:52 145.960
Gurwin Techsat 1B 23 Jan 11:18:33 11:22:34 22° 60° (ENE) 11:26:36 435.225
AIST 2D 23 Jan 11:20:20 11:21:47 12° 270° (W) 11:23:13 435.315
QB50P2 23 Jan 11:29:02 11:32:53 33° 263° (W) 11:36:47 145.880/145.840
DUCHIFAT 1 23 Jan 11:54:25 11:58:00 27° 265° (W) 12:01:39 145.980
EO-79 23 Jan 11:59:57 12:03:00 19° 268° (W) 12:06:05 145.935-145.965
PCSat 23 Jan 12:02:15 12:05:01 14° 336° (NNW) 12:07:48 145.827
SPROUT 23 Jan 12:08:16 12:12:32 58° 101° (E) 12:16:46 437.525
AO-85 23 Jan 12:21:28 12:25:15 35° 318° (NW) 12:29:20 145.980
SO-50 23 Jan 12:23:28 12:28:05 57° 48° (NE) 12:32:47 436.795
AO-7 23 Jan 12:25:38 12:32:31 30° 50° (NE) 12:39:23 .
VELOX 1 23 Jan 12:32:50 12:37:11 56° 101° (E) 12:41:31 145.980
DX 1 23 Jan 12:41:24 12:43:52 15° 90° (E) 12:46:19 434.975-435.025
LO-87 23 Jan 12:41:42 12:42:38 11° 300° (WNW) 12:43:32 145.935 - 145.965
BUGSAT 1 23 Jan 12:44:30 12:48:09 31° 264° (W) 12:51:54 437.445
ESTCUBE 1 23 Jan 12:47:02 12:50:09 19° 299° (WNW) 12:53:15 437.505/2401.250
Oscar 19 23 Jan 12:48:35 12:53:41 55° 259° (W) 12:58:49 437.125/150
AO-91 23 Jan 12:51:36 12:54:46 35° 263° (W) 12:58:05 145.960
Gurwin Techsat 1B 23 Jan 12:56:50 13:02:05 62° 258° (WSW) 13:07:22 435.225
50 SAT 23 Jan 13:07:56 13:10:15 19° 95° (E) 13:12:34 437.505
RS-15 23 Jan 13:22:20 13:33:16 37° 17° (NNE) 13:43:42 29.354- 29.394
SPROUT 23 Jan 13:45:11 13:47:59 17° 299° (WNW) 13:50:47 437.525
UKube-1 23 Jan 13:58:05 14:02:19 53° 101° (E) 14:06:31 .
ITAMSAT 1 23 Jan 14:01:07 14:06:00 44° 67° (ENE) 14:10:54 435.822/435.867
SO-50 23 Jan 14:04:32 14:08:14 23° 246° (WSW) 14:11:59 436.795
AO-85 23 Jan 14:05:30 14:07:02 12° 342° (NNW) 14:08:37 145.980
VELOX 1 23 Jan 14:10:12 14:13:14 18° 299° (WNW) 14:16:14 145.980
AO-7 23 Jan 14:16:06 14:24:28 81° 251° (WSW) 14:32:55 .
DX 1 23 Jan 14:16:09 14:20:28 63° 288° (WNW) 14:24:45 434.975-435.025
M-CUBED/EXP-1 PRIME 23 Jan 14:25:20 14:28:33 22° 60° (ENE) 14:31:37 437.505
DOVE 4 23 Jan 14:34:12 14:37:16 20° 64° (ENE) 14:40:19 437.250
50 SAT 23 Jan 14:39:21 14:41:55 23° 292° (WNW) 14:44:28 437.505
ITUPSAT 1 23 Jan 14:48:18 14:52:36 31° 96° (E) 14:56:52 437.325
MOZHAYETS 4 23 Jan 14:51:28 14:56:04 60° 101° (E) 15:00:37
BEESAT 3 23 Jan 15:01:16 15:03:02 13° 28° (NNE) 15:04:47 437.485
CUBESAT XI-V 23 Jan 15:02:50 15:06:26 22° 92° (E) 15:09:59 437.345
NO-84 23 Jan 15:04:43 15:06:20 13° 132° (SE) 15:07:56 435.350 FM
HO-68 23 Jan 15:12:49 15:15:32 12° 42° (NE) 15:18:15 435.675
BEESAT 23 Jan 15:25:40 15:30:29 71° 103° (ESE) 15:35:15 436.000
XW-2D 23 Jan 15:29:41 15:30:45 11° 60° (ENE) 15:31:48 145.860 - 145.880
PCSat 23 Jan 15:33:29 15:36:55 17° 29° (NNE) 15:40:21 145.827
UKube-1 23 Jan 15:34:58 15:37:57 19° 299° (WNW) 15:40:57 .
RS-15 23 Jan 15:36:09 15:48:05 74° 48° (NE) 15:59:18 29.354- 29.394
ITAMSAT 1 23 Jan 15:41:15 15:45:37 28° 266° (W) 15:50:02 435.822/435.867
XW-2B 23 Jan 15:46:00 15:48:18 16° 63° (ENE) 15:50:37 145.730 - 145.750
CUTE-I 23 Jan 15:56:02 16:00:17 25° 61° (ENE) 16:04:31 437.470
BEESAT 2 23 Jan 15:56:20 15:58:17 13° 28° (NNE) 16:00:14 435.950
M-CUBED/EXP-1 PRIME 23 Jan 15:58:44 16:02:45 41° 255° (WSW) 16:06:32 437.505
KKS-1 23 Jan 16:00:50 16:02:44 12° 89° (E) 16:04:38 437.445
DOVE 4 23 Jan 16:10:42 16:14:43 42° 262° (W) 16:18:42 437.250
AO-7 23 Jan 16:13:00 16:18:30 19° 272° (W) 16:24:04 .
XW-2C 23 Jan 16:15:15 16:18:38 31° 69° (ENE) 16:22:02 145.795 - 145.815
LilacSat-2 23 Jan 16:16:47 16:20:18 35° 70° (ENE) 16:23:49 437.200
CUTE 1.7 + AOD 2 23 Jan 16:21:11 16:23:16 14° 60° (ENE) 16:25:23 437.475
ITUPSAT 1 23 Jan 16:26:04 16:30:25 35° 294° (WNW) 16:34:46 437.325
MOZHAYETS 4 23 Jan 16:29:35 16:32:46 19° 299° (WNW) 16:35:57
BEESAT 3 23 Jan 16:37:31 16:41:24 55° 49° (NE) 16:45:13 437.485
CUBESAT XI-V 23 Jan 16:39:36 16:44:00 45° 290° (WNW) 16:48:22 437.345
NO-84 23 Jan 16:40:06 16:43:10 78° 328° (NNW) 16:46:05 435.350 FM
KAITUO 1B 23 Jan 16:41:19 16:44:52 42° 72° (ENE) 16:48:26 145.475/437.950
NUDT-PHONESAT 23 Jan 16:46:38 16:50:12 45° 72° (ENE) 16:53:47 437.300
XW-2F 23 Jan 16:48:09 16:51:55 67° 74° (ENE) 16:55:42 145.980 - 146.000
HO-68 23 Jan 16:54:50 17:01:37 49° 64° (ENE) 17:08:26 435.675
XW-2D 23 Jan 17:00:30 17:04:19 78° 256° (WSW) 17:08:09 145.860 - 145.880
CUBEBUG 2 23 Jan 17:02:43 17:06:17 24° 64° (ENE) 17:09:57 437.445
UWE-3 23 Jan 17:02:52 17:05:28 15° 59° (ENE) 17:08:06 435.000/436.395/437.385
BEESAT 23 Jan 17:04:36 17:07:42 17° 302° (WNW) 17:10:48 436.000
AAUSAT CUBESAT 2 23 Jan 17:11:04 17:12:31 12° 59° (ENE) 17:13:57 437.432
PCSat 23 Jan 17:16:06 17:21:29 59° 52° (NE) 17:26:50 145.827
XW-2B 23 Jan 17:18:23 17:22:06 50° 261° (W) 17:25:50 145.730 - 145.750
ZACube-1 23 Jan 17:20:26 17:22:21 13° 57° (ENE) 17:24:15 437.345
AO-73 23 Jan 17:25:19 17:27:11 12° 57° (ENE) 17:29:03 145.935
AO-85 23 Jan 17:28:29 17:31:55 19° 31° (NNE) 17:35:32 145.980
BEESAT 2 23 Jan 17:32:53 17:36:52 56° 49° (NE) 17:40:46 435.950
CUTE-I 23 Jan 17:34:47 17:39:59 54° 260° (W) 17:45:13 437.470
KKS-1 23 Jan 17:35:21 17:39:50 77° 286° (WNW) 17:44:17 437.445
SEEDS 23 Jan 17:35:55 17:39:54 43° 70° (ENE) 17:43:53 437.485
STARS 23 Jan 17:42:30 17:46:51 53° 101° (E) 17:51:10 437.465
RS-15 23 Jan 17:49:23 17:59:37 38° 253° (WSW) 18:09:27 29.354- 29.394
XW-2C 23 Jan 17:49:46 17:52:50 23° 266° (W) 17:55:55 145.795 - 145.815
LilacSat-2 23 Jan 17:51:43 17:54:39 21° 267° (W) 17:57:36 437.200
XW-2A 23 Jan 17:53:48 17:56:25 21° 67° (ENE) 17:59:02 145.665 - 145.685
CUTE 1.7 + AOD 2 23 Jan 17:54:16 17:58:32 76° 258° (WSW) 18:02:48 437.475
Oscar 11 23 Jan 17:54:33 17:56:55 14° 60° (ENE) 17:59:16 .
BEESAT 3 23 Jan 18:15:58 18:18:31 17° 248° (WSW) 18:21:04 437.485
KAITUO 1B 23 Jan 18:16:37 18:19:02 16° 269° (W) 18:21:27 145.475/437.950
NO-84 23 Jan 18:18:20 18:20:39 21° 347° (NNW) 18:22:56 435.350 FM
NUDT-PHONESAT 23 Jan 18:22:03 18:24:15 15° 269° (W) 18:26:29 437.300
XW-2F 23 Jan 18:25:28 18:26:26 11° 272° (W) 18:27:25 145.980 - 146.000
ISS 23 Jan 18:32:51 18:33:35 11° 133° (SE) 18:34:19 437.550
UWE-3 23 Jan 18:36:48 18:41:17 76° 258° (WSW) 18:45:56 435.000/436.395/437.385
CUBEBUG 2 23 Jan 18:38:25 18:42:38 43° 263° (W) 18:47:02 437.445
HO-68 23 Jan 18:42:53 18:49:29 39° 263° (W) 18:56:07 435.675
AAUSAT CUBESAT 2 23 Jan 18:43:12 18:47:20 84° 260° (W) 18:51:28 437.432
FO-29 23 Jan 18:43:44 18:46:51 16° 89° (E) 18:50:00 435.910
ZACube-1 23 Jan 18:53:22 18:57:52 87° 76° (ENE) 19:02:29 437.345
DELFI C3 23 Jan 18:54:24 18:54:48 10° 58° (ENE) 18:55:11 145.870
AO-73 23 Jan 18:58:10 19:02:39 86° 79° (E) 19:07:15 145.935
PCSat 23 Jan 19:00:08 19:04:31 25° 251° (WSW) 19:08:51 145.827
AO-85 23 Jan 19:08:13 19:13:07 75° 52° (NE) 19:18:20 145.980
BEESAT 2 23 Jan 19:11:29 19:14:10 17° 248° (WSW) 19:16:49 435.950
SEEDS 23 Jan 19:12:39 19:15:46 20° 268° (W) 19:18:52 437.485
STRAND 1 23 Jan 19:13:18 19:18:25 63° 102° (ESE) 19:23:32 437.568
KKS-1 23 Jan 19:14:26 19:15:36 11° 305° (NW) 19:16:46 437.445
STARS 23 Jan 19:19:40 19:22:49 20° 298° (WNW) 19:25:59 437.465
XW-2A 23 Jan 19:25:59 19:28:58 27° 264° (W) 19:31:57 145.665 - 145.685
Oscar 11 23 Jan 19:28:08 19:32:29 73° 257° (WSW) 19:36:52 .
nSIGHT-1 23 Jan 19:40:13 19:43:17 52° 149° (SSE) 19:46:23 .
NO-84 23 Jan 19:56:24 19:58:32 19° 9° (N) 20:00:40 435.350 FM
ISS 23 Jan 20:06:16 20:09:29 61° 150° (SSE) 20:12:43 437.550
Max Valier Satellite 23 Jan 20:24:26 20:28:07 59° 74° (ENE) 20:31:49 145.860
DELFI C3 23 Jan 20:24:57 20:28:52 89° 256° (WSW) 20:32:48 145.870
FO-29 23 Jan 20:27:25 20:32:37 71° 288° (WNW) 20:37:51 435.910
YUBILEINY 23 Jan 20:27:39 20:31:57 15° 71° (ENE) 20:36:14 435.215
ZACube-1 23 Jan 20:33:25 20:34:48 11° 274° (W) 20:36:12 437.345
EO-88 23 Jan 20:35:36 20:39:09 52° 74° (ENE) 20:42:44 145.990 - 145.960
AO-73 23 Jan 20:38:04 20:39:32 11° 274° (W) 20:41:00 145.935
ESTCUBE 1 23 Jan 20:38:55 20:39:56 11° 55° (NE) 20:40:57 437.505/2401.250
AO-85 23 Jan 20:49:36 20:53:07 19° 248° (WSW) 20:56:46 145.980
STRAND 1 23 Jan 20:53:22 20:57:10 21° 300° (WNW) 21:00:58 437.568
TIGRISAT 23 Jan 21:05:14 21:09:36 37° 96° (E) 21:13:57 435.000
nSIGHT-1 23 Jan 21:16:28 21:19:32 43° 348° (NNW) 21:22:35 .
UNISAT 6 23 Jan 21:21:16 21:25:56 57° 100° (E) 21:30:32 437.425
NO-84 23 Jan 21:33:21 21:36:08 56° 29° (NNE) 21:38:57 435.350 FM
ISS 23 Jan 21:42:56 21:46:05 42° 349° (N) 21:49:14 437.550
LO-87 23 Jan 21:44:34 21:47:59 44° 72° (ENE) 21:51:26 145.935 - 145.965
Max Valier Satellite 23 Jan 22:00:53 22:02:17 12° 271° (W) 22:03:42 145.860
PRISM 23 Jan 22:08:58 22:12:46 36° 98° (E) 22:16:33 437.425
ESTCUBE 1 23 Jan 22:11:25 22:15:56 75° 74° (ENE) 22:20:27 437.505/2401.250
EO-88 23 Jan 22:11:26 22:13:06 13° 270° (W) 22:14:45 145.990 - 145.960
FO-29 23 Jan 22:15:12 22:16:47 11° 308° (NW) 22:18:22 435.910
YUBILEINY 23 Jan 22:18:17 22:26:59 68° 93° (E) 22:35:41 435.215
AIST 2D 23 Jan 22:39:27 22:42:44 38° 98° (E) 22:45:59 435.315
POLYITAN 1 23 Jan 22:41:23 22:43:42 14° 89° (E) 22:46:00 437.675
TIGRISAT 23 Jan 22:42:06 22:46:10 29° 295° (WNW) 22:50:12 435.000
nSIGHT-1 23 Jan 22:53:05 22:56:06 38° 8° (N) 22:59:06 .
NANOSAT C BR1 23 Jan 22:53:27 22:56:12 17° 91° (E) 22:58:56 145.865
UNISAT 6 23 Jan 22:58:48 23:02:13 20° 298° (WNW) 23:05:37 437.425
SPROUT 23 Jan 23:04:02 23:08:14 64° 73° (ENE) 23:12:30 437.525
QB50P2 23 Jan 23:10:16 23:14:05 30° 96° (E) 23:17:52 145.880/145.840
NO-84 23 Jan 23:11:06 23:13:01 17° 227° (SW) 23:14:58 435.350 FM
LO-87 23 Jan 23:19:37 23:21:36 14° 269° (W) 23:23:37 145.935 - 145.965
ISS 23 Jan 23:19:51 23:22:59 41° 9° (N) 23:26:07 437.550
VELOX 1 23 Jan 23:32:40 23:37:01 73° 74° (ENE) 23:41:25 145.980
DUCHIFAT 1 23 Jan 23:34:18 23:38:15 36° 97° (E) 23:42:12 145.980
50 SAT 23 Jan 23:36:58 23:37:25 10° 62° (ENE) 23:37:52 437.505
DX 1 23 Jan 23:39:37 23:42:47 20° 62° (ENE) 23:45:58 434.975-435.025
EO-79 23 Jan 23:39:40 23:43:54 55° 100° (E) 23:48:05 145.935-145.965
PRISM 23 Jan 23:44:38 23:47:51 23° 295° (WNW) 23:51:04 437.425
O/OREOS (USA 219) 23 Jan 23:48:13 23:52:44 85° 113° (ESE) 23:57:14 437.305
ESTCUBE 1 23 Jan 23:51:05 23:53:15 13° 272° (W) 23:55:25 437.505/2401.250
